Content
SEND FEEDBACK

Daily
Averages
Monthly
Summary
United States of America

BANGOR, MAINE


Home > North America > United States > Maine
Elevation: 192 feet     Latitude: 44 48N     Longitude: 068 49W

WEATHER
 
SELECT A DAY
Number of Records: 160,723;   Date Range: 1/1/95 - 7/7/14
 
SHARE

PRINT THIS DATA

[ ← Previous Day ]
WEATHER ALMANAC - JANUARY 23, 2013
[ Next Day → ]
[ °C ]   °F
Weather ElementAverageHighLow
Temperature-1.6 °F3 °F (1:53 pm)-6 °F (11:53 pm)
Dewpoint-18.4 °F-13 °F (1:53 am)-20 °F (1:53 pm)
Humidity45.3 %54 % (5:53 am)34 % (1:53 pm)
Barometer30.01 in30.04 in (8:53 am)29.97 in (1:53 pm)
Wind Speed9.7 mph15 mph (3:53 pm)
Wind Gust25.3 mph (2:53 pm)
Weather ElementAverage
Visibility10 mi
Wind DirectionWSW (250.4 °)

Weather ElementTotal
Precipitation---
Heating Degree Days66.5 (Base 65)
Averaged from 23 records on January 23, 2013
WEATHER CONDITIONS BREAKOUT
WIND DIRECTION BREAKOUT
WEATHER BY HOUR - JANUARY 23, 2013
[ °C ]   °F
Local TimeTemperatureDewpointHumidityBarometerVisibilityWind DirectionWind SpeedGust SpeedPrecipitationEventsConditions
1:53 AM1.9 °F-13.0 °F50 %29.98 in10.0 miWest (270°)6.9 mphClear
2:53 AM1.0 °F-15.0 °F47 %29.99 in10.0 miVariable4.6 mphClear
3:53 AM-0.9 °F-16.1 °F49 %29.99 in10.0 miVariable3.5 mphClear
4:53 AM-2.0 °F-16.1 °F51 %30.00 in10.0 miWNW (300°)5.8 mphClear
5:53 AM-4.0 °F-17.0 °F54 %30.01 in10.0 miWest (270°)4.6 mphClear
6:53 AM-5.1 °F-18.0 °F54 %30.02 in10.0 miWest (280°)10.4 mphPartly Cloudy
7:53 AM-4.0 °F-18.9 °F49 %30.03 in10.0 miVariable3.5 mphClear
8:53 AM-2.9 °F-18.9 °F46 %30.04 in10.0 miWest (280°)10.4 mphClear
9:53 AM-0.9 °F-18.9 °F42 %30.04 in10.0 miWest (280°)10.4 mph18.4 mphPartly Cloudy
10:53 AM0.0 °F-18.9 °F41 %30.03 in10.0 miWest (280°)13.8 mph23.0 mphClear
11:53 AM1.0 °F-18.0 °F41 %30.00 in10.0 miNW (310°)13.8 mph21.9 mphClear
12:53 PM1.9 °F-18.0 °F39 %29.98 in10.0 miWNW (300°)12.7 mph23.0 mphClear
1:53 PM3.0 °F-20.0 °F34 %29.97 in10.0 miWest (270°)13.8 mph24.2 mphClear
2:53 PM1.9 °F-20.0 °F35 %29.99 in10.0 miWNW (300°)13.8 mph25.3 mphClear
3:53 PM1.9 °F-18.9 °F37 %29.99 in10.0 miNW (310°)15.0 mph24.2 mphClear
4:53 PM-0.9 °F-18.9 °F42 %30.01 in10.0 miWest (280°)12.7 mph18.4 mphClear
5:53 PM-2.0 °F-20.0 °F42 %30.01 in10.0 miWNW (290°)11.5 mphClear
6:53 PM-2.0 °F-18.9 °F45 %30.03 in10.0 miNW (310°)12.7 mph18.4 mphClear
7:53 PM-4.0 °F-18.9 °F49 %30.02 in10.0 miWest (280°)6.9 mphClear
8:53 PM-4.0 °F-20.0 °F46 %30.03 in10.0 miWNW (290°)6.9 mphClear
9:53 PM-5.1 °F-20.0 °F49 %30.02 in10.0 miWNW (290°)8.1 mphClear
10:53 PM-5.1 °F-20.0 °F49 %30.01 in10.0 miWNW (290°)9.2 mph19.6 mphClear
11:53 PM-6.0 °F-20.0 °F51 %30.00 in10.0 miWest (280°)11.5 mph19.6 mphClear
Hourly data recorded from KBGR, located miles away from Bangor, Maine







STORIES FROM OUR PARTNERS